Location: Archemont
(49.1579°N, 1.7598°E)
Time: 11:03:49
(UTC+00:00)

Cosmos 1633 - Pass Details

Date: 03 February 2023
Orbit: 423 x 432 km, 82.5° (Epoch: 28 March)

Event Time Altitude Azimuth Distance (km) Brightness Sun altitude
Rises 19:15:39 0° 213° (SSW) 2,374 6.5 -23.6°
Reaches altitude 10° 19:17:52 10° 226° (SW) 1,513 5.6 -23.9°
Maximum altitude 19:20:44 27° 287° (WNW) 845 4.4 -24.4°
Enters shadow 19:22:46 16° 338° (NNW) 1,229 4.8 -24.7°
